Regional Weather Roundup
Issued by NWS

Home | Current Version | Previous Version | Graphics & Text | Print | Product List | Glossary On
Versions: 1 2 3 4 5 6 7 8 9 10 11 12 13 14 15 16 17 18 19 20 21 22 23 24 25 26 27 28 29 30 31 32 33 34 35 36 37 38 39 40 41 42 43 44 45 46 47 48 49 50
000
ASUS43 KOAX 062302
RWRNE

WEATHER ROUNDUP FOR NEBRASKA
NATIONAL WEATHER SERVICE OMAHA NE
500 PM CST SAT FEB 06 2016

NOTES: SATELLITE DATA IS BEING USED TO AUGMENT CLOUD COVER ABOVE
       12000 FEET.
       "FAIR" INDICATES FEW OR NO CLOUDS BELOW 12,000 FEET WITH NO
       SIGNIFICANT WEATHER AND/OR OBSTRUCTIONS TO VISIBILITY.

  * THESE STATIONS DO NOT REPORT WEATHER SUCH AS RAIN...SNOW OR FOG.

NEZ001>004-019>022-054>056-070000-
NEBRASKA PANHANDLE

CITY           SKY/WX    TMP DP  RH WIND       PRES   REMARKS
SCOTTSBLUFF    CLOUDY    42  24  49 W22G30    30.01S
ALLIANCE       CLOUDY    37  28  70 W28G33    29.94S WCI  25
CHADRON        CLOUDY    44  30  57 W10       29.92S
SIDNEY         CLOUDY    41  28  60 W16       30.01F
$$

NEZ057>060-069>072-079>082-070000-
SOUTHWEST NEBRASKA

CITY           SKY/WX    TMP DP  RH WIND       PRES   REMARKS
NORTH PLATTE   CLOUDY    39  25  57 W14       30.01F WCI  31
IMPERIAL       CLOUDY    37  27  67 W9        30.04F WCI  30
MCCOOK         CLOUDY    38  26  62 SW12      30.06F WCI  30
$$

NEZ005>010-023>029-035>040-094-070000-
NORTH CENTRAL NEBRASKA

CITY           SKY/WX    TMP DP  RH WIND       PRES   REMARKS
VALENTINE      CLOUDY    45  27  49 W13       29.89F
BROKEN BOW     CLOUDY    38  27  64 W14       29.95F WCI  30
ORD            PTCLDY    38  28  67 SW18      29.94F WCI  28
$$

NEZ041-046>049-061>064-073>077-083>087-070000-
SOUTH CENTRAL NEBRASKA

CITY           SKY/WX    TMP DP  RH WIND       PRES   REMARKS
GRAND ISLAND   PTCLDY    33  24  69 SW22      30.02F WCI  21
HASTINGS       PTCLDY    35  22  58 SW14      30.05F WCI  26
$$

NEZ011>018-030>034-042>045-070000-
NORTHEAST NEBRASKA

CITY           SKY/WX    TMP DP  RH WIND       PRES   REMARKS
NORFOLK        PTCLDY    35  27  72 S16       29.92F WCI  25
COLUMBUS *     CLOUDY    36  21  55 SW9       30.01F WCI  29
TEKAMAH        CLOUDY    35  27  72 S21       30.00F WCI  24
$$

NEZ050>053-065>068-078-088>093-070000-
SOUTHEAST NEBRASKA

CITY           SKY/WX    TMP DP  RH WIND       PRES   REMARKS
LINCOLN        CLOUDY    37  24  59 SW15      30.07F WCI  28
OMAHA EPPLEY   CLOUDY    41  27  57 S16G23    30.06F
FALLS CITY     CLEAR     46  27  47 SW12      30.14F
$$

NEZ044-045-051>053-067-070000-
OMAHA AREA

CITY           SKY/WX    TMP DP  RH WIND       PRES   REMARKS
OMAHA EPPLEY   CLOUDY    41  27  57 S16G23    30.06F
OFFUTT AFB     CLOUDY    40  29  66 S10       30.07F WCI  33
$$



USA.gov is the U.S. government's official web portal to all federal, state and local government web resources and services.